User: anonymous   Login
Location: Alsip
(41.6689°N, 87.7387°W)
Time: 11:27:56
(UTC+00:00)
Language:

GEOS 3 Rocket - Orbit

View from above orbital plane
View from above orbital plane
View from above satellite
View from above satellite

Ground track
Ground track

The orbit data is extracted from the following two-line orbital elements,

1  7735U 75027B   20271.95179201 -.00000129  00000-0  20729-4 0  9996
2  7735 114.9783 269.8837 0054928 281.7921  77.7002 14.24616479360981
Epoch (UTC): 27 September 2020 22:50:34
Eccentricity: 0.0054928
inclination: 114.9783°
perigee height: 770 km
apogee height: 849 km
right ascension of ascending node: 269.8837°
argument of perigee: 281.7921°
revolutions per day: 14.24616479
mean anomaly at epoch: 77.7002°
orbit number at epoch: 36098

The dashed part of the orbit path shows where the satellite is in the earth's shadow,  

DLR